Theta_e
301 301 302 302 302 302 302 303 303 304 303 303 302 305 302 303 301 311 313 314 312 305 296 297 295 296 297 298 297 298 296 296 297 295 297 295 297 296 295 295 294 295 294 295 294 296 293 294 295 297 298 299 302 303 304 304 303 303 301 300 301 300 294 292 293 298 300 300 302 302 302 301 299 300 301 299 296 298 295 294 296 293 293 290 291 287 291
300 301 302 302 302 302 302 303 304 304 304 303 303 302 303 305 304 305 312 315 311 302 289 290 292 296 297 297 295 297 297 296 295 294 296 295 296 295 295 296 296 295 297 296 293 297 290 295 296 297 299 299 303 304 304 305 304 304 302 299 305 292 296 295 290 290 293 296 298 298 301 301 300 300 302 300 300 300 300 300 299 290 293 293 289 285 290
300 301 301 301 302 302 302 303 304 304 304 304 303 301 306 305 307 306 308 312 309 297 298 295 292 294 295 295 293 295 295 297 297 296 295 297 297 296 295 296 297 296 297 295 296 297 295 294 297 297 298 299 303 303 303 305 304 305 306 305 306 296 296 293 287 285 282 283 284 287 290 295 300 300 300 299 299 300 297 290 293 288 293 295 290 289 297
300 301 301 302 302 302 303 303 304 304 304 303 302 302 304 300 292 300 304 307 305 302 303 301 296 294 294 291 293 295 293 295 297 297 296 297 297 297 296 297 297 295 295 294 294 294 297 294 295 296 298 299 300 301 303 303 303 304 305 305 306 298 299 296 293 291 289 289 291 296 298 298 294 297 299 299 300 300 300 299 292 290 293 292 294 296 298
301 301 301 302 302 302 303 303 304 303 303 303 304 304 306 303 296 296 293 301 301 298 300 298 298 293 297 289 294 292 293 294 295 297 294 296 296 296 296 295 294 294 294 293 293 294 293 296 296 295 296 298 299 301 302 303 302 303 303 305 303 301 293 297 296 295 295 296 296 296 296 296 296 297 298 299 300 301 299 293 291 297 293 288 299 301 299
300 301 301 301 302 302 303 304 305 303 303 304 304 303 305 295 300 301 304 296 291 292 293 298 297 297 297 293 295 292 292 293 291 295 296 296 298 294 295 295 294 294 293 294 290 293 293 294 291 295 296 297 299 299 300 299 300 302 302 304 300 296 291 299 298 296 295 295 296 297 297 296 297 297 298 298 300 301 297 297 299 300 293 291 295 300 299
300 300 301 301 302 302 303 304 305 303 302 303 304 301 302 303 302 302 303 295 297 298 298 299 297 296 295 293 294 292 292 291 293 294 295 295 295 295 288 292 293 294 295 294 292 293 289 288 295 294 294 294 294 297 299 299 300 300 301 301 302 298 293 298 298 296 295 295 295 296 295 295 295 295 295 297 298 298 299 298 299 300 299 300 300 299 294
300 300 301 302 302 302 303 304 305 303 302 303 304 305 301 299 298 297 301 301 298 298 298 297 296 293 294 290 293 292 292 291 293 294 294 290 293 295 293 292 294 294 294 294 292 293 294 293 289 295 294 296 295 291 292 294 299 299 297 298 300 296 291 296 298 294 294 295 296 296 296 296 292 293 293 294 296 297 296 296 296 299 301 300 299 297 293
300 300 301 302 302 302 303 304 305 302 301 304 304 304 305 305 306 306 297 294 296 297 296 294 293 290 292 291 292 293 292 292 293 293 296 294 292 293 292 293 294 294 294 294 294 295 295 295 295 296 295 291 295 294 297 297 292 293 294 291 294 297 292 299 297 291 289 294 295 291 292 293 292 290 289 290 292 291 293 291 294 296 294 299 298 296 292
299 300 301 301 302 302 303 304 305 303 301 304 305 303 307 307 306 305 303 293 293 295 295 295 293 288 292 294 293 293 292 293 294 290 294 294 295 295 294 294 295 294 294 293 294 296 296 297 297 297 298 298 296 297 296 296 296 295 297 296 296 296 294 290 291 287 288 293 295 292 292 291 287 285 286 288 290 292 295 296 296 294 295 294 293 295 296
300 301 301 301 302 302 303 304 305 304 305 304 304 305 306 306 302 302 302 293 291 295 294 292 292 293 294 294 293 294 294 293 294 290 288 295 295 296 296 295 293 292 293 295 297 298 298 299 299 299 298 297 296 298 299 299 298 297 298 297 293 293 294 290 292 285 288 292 292 294 289 283 283 288 291 289 288 289 290 290 292 294 295 293 295 296 297
300 300 301 301 302 302 303 303 304 305 304 306 305 304 307 307 305 303 295 291 291 296 294 292 293 293 294 293 294 292 292 292 293 294 292 295 296 297 296 295 295 288 296 299 299 299 300 300 299 298 298 297 297 299 299 297 298 300 299 297 295 293 294 290 293 287 286 289 289 287 281 281 287 292 293 292 292 292 291 293 294 294 294 294 293 294 293
300 300 300 301 302 302 303 303 304 305 304 306 304 305 309 307 306 302 299 295 291 293 291 292 294 294 293 293 292 293 293 294 294 296 295 295 296 297 296 295 295 295 298 298 299 298 296 294 295 295 295 296 297 298 298 297 296 298 300 299 298 292 291 291 290 291 291 288 287 280 281 287 291 291 292 293 294 292 292 291 292 292 292 293 291 291 292
299 300 300 301 302 302 303 303 304 305 304 304 304 306 307 306 303 301 298 293 291 295 296 293 292 292 293 293 292 293 293 293 295 296 294 297 295 295 296 296 297 299 299 300 298 297 293 294 289 291 292 293 294 292 296 294 296 296 295 297 299 298 297 294 289 292 286 287 287 284 287 288 288 288 289 288 285 287 286 285 288 290 292 292 290 289 289
299 299 300 301 301 302 303 303 304 304 304 303 307 307 307 308 307 305 302 299 291 292 295 289 292 293 293 292 291 291 292 292 291 293 295 297 295 296 297 297 299 299 301 298 295 296 292 291 286 285 286 286 282 283 294 291 296 297 296 294 293 291 292 292 290 287 292 288 283 284 283 281 282 288 291 293 293 292 292 288 287 291 292 292 291 289 289
299 299 300 301 301 302 303 303 304 304 305 304 307 306 307 308 309 304 302 297 294 288 291 294 294 293 292 291 292 291 290 289 291 292 293 294 294 296 297 298 300 301 298 296 296 293 291 288 284 284 282 284 288 287 286 293 291 295 296 296 298 295 296 294 291 289 289 288 285 283 281 281 286 287 291 293 293 292 292 288 285 289 292 292 292 290 291
299 299 300 300 301 302 303 303 304 304 305 304 307 306 306 307 305 304 301 298 296 288 293 294 296 295 292 290 293 292 293 290 291 288 288 291 293 292 295 299 301 300 298 296 295 292 289 287 287 289 284 283 283 286 287 286 285 286 291 292 293 293 292 292 290 287 289 288 285 281 283 281 286 289 291 293 293 294 289 282 282 286 291 291 291 290 291
299 299 300 300 301 302 303 303 304 305 305 304 307 306 306 308 307 305 301 297 292 290 294 295 294 293 292 293 291 292 295 294 293 293 291 292 291 292 293 296 295 297 299 293 294 290 288 288 286 286 284 287 286 287 282 285 283 283 283 284 286 287 287 289 286 287 285 285 284 284 284 288 290 290 293 295 295 291 284 281 284 291 292 292 292 291 292
299 299 300 300 301 302 303 303 304 304 305 304 308 307 305 307 305 306 303 298 295 288 294 295 297 295 295 297 296 295 294 294 294 291 290 290 292 293 294 294 296 292 296 292 294 290 288 286 290 288 285 286 289 283 287 284 283 289 287 284 285 286 288 287 287 286 287 288 285 283 284 287 291 293 295 296 291 283 283 288 294 293 292 293 294 293 294
299 299 300 300 301 302 303 304 304 305 305 305 308 302 303 308 307 307 302 295 295 292 295 296 297 294 296 296 294 294 295 295 295 293 291 289 296 295 294 290 295 296 293 296 287 290 288 285 286 287 285 284 286 288 286 285 289 286 287 288 285 283 285 283 284 286 288 287 284 283 278 287 293 292 294 293 287 284 290 291 294 294 292 292 291 293 292
298 299 299 300 301 302 303 304 305 305 305 305 304 308 302 308 311 311 313 302 296 291 292 297 297 297 297 297 298 296 295 292 293 292 293 294 295 294 287 287 292 293 290 292 287 287 288 286 288 287 288 288 286 288 283 284 287 292 291 289 287 290 285 285 285 287 284 283 280 279 284 289 293 291 285 287 289 291 292 293 291 293 293 291 289 290 292
298 299 300 300 301 302 303 304 305 305 305 304 303 311 300 306 310 309 310 307 298 293 296 299 300 300 300 300 300 301 298 297 298 298 296 293 297 295 294 295 294 295 296 297 293 290 293 291 292 288 285 286 290 285 288 285 283 288 294 293 283 289 287 288 284 288 285 282 284 288 290 291 293 293 292 292 293 295 295 295 294 292 291 293 289 288 291
298 299 299 300 301 302 303 304 304 305 305 304 307 309 303 303 304 309 314 298 300 300 302 300 300 300 300 300 300 301 301 301 301 302 300 296 293 296 295 296 294 297 298 298 295 295 294 293 289 293 289 290 287 286 289 288 285 288 285 292 290 293 293 295 291 287 291 292 292 293 292 293 294 296 295 294 294 296 297 294 292 293 293 293 291 292 292
298 299 299 300 301 302 303 304 304 305 304 303 303 310 304 306 306 309 302 300 296 293 297 301 297 292 295 295 299 301 301 300 300 301 303 301 293 293 297 297 296 299 297 298 297 296 294 294 293 294 286 290 292 287 284 283 285 290 288 288 291 294 295 293 288 291 289 282 291 291 292 294 295 295 297 298 299 298 297 295 294 294 294 294 295 294 293
298 298 299 300 301 302 302 304 304 304 304 302 305 307 310 307 307 307 301 291 293 293 287 290 293 297 299 300 301 300 299 301 301 303 303 303 300 296 294 297 299 299 296 298 300 298 295 290 291 290 285 290 294 286 291 287 285 292 286 288 290 288 296 292 291 290 287 285 291 293 295 296 296 296 295 295 297 298 299 298 297 296 296 296 295 295 294
298 298 299 300 300 301 302 303 304 304 304 303 305 309 307 303 307 310 304 303 301 294 289 288 293 300 301 299 296 297 300 300 300 301 301 299 300 304 299 299 299 301 300 300 302 296 294 293 291 291 288 288 297 289 288 292 290 293 290 287 292 292 296 287 290 287 289 292 292 293 294 294 295 296 297 298 298 297 298 298 297 297 296 296 296 296 295
298 298 299 300 300 301 302 303 304 303 303 303 307 308 307 306 309 308 304 301 295 290 292 289 294 296 299 297 298 300 300 301 302 301 300 299 299 302 302 301 299 300 300 299 300 296 295 293 292 289 292 290 295 293 294 290 291 288 288 292 295 293 288 292 290 286 286 286 289 293 287 286 291 294 296 297 299 299 298 298 297 297 296 296 296 296 297
297 298 299 300 300 301 302 303 303 303 303 303 307 307 308 306 307 308 309 306 302 291 290 290 291 295 301 296 299 300 301 302 301 300 299 299 301 302 301 300 301 299 299 296 292 292 291 288 287 290 292 294 291 288 294 293 293 290 289 291 294 291 293 292 287 286 285 291 293 295 294 294 294 296 297 298 298 298 297 297 297 298 298 297 296 295 296
297 298 299 300 301 301 302 303 303 303 302 303 308 308 305 307 309 309 309 309 309 299 295 295 298 297 290 294 301 299 300 302 301 300 299 299 299 300 300 300 299 298 297 295 292 291 290 289 292 290 290 293 292 288 290 284 284 283 288 294 294 296 297 295 293 293 294 295 296 297 295 292 295 297 298 298 299 298 297 297 298 298 298 298 297 297 296
298 299 300 300 301 302 302 303 303 303 302 307 308 304 297 299 306 307 307 308 308 303 293 290 287 289 299 298 298 298 298 300 300 300 299 298 299 299 299 299 298 300 298 293 292 289 290 290 290 295 296 299 292 289 286 286 284 286 292 294 295 296 296 297 298 294 292 297 297 298 297 296 298 298 298 298 299 298 297 297 297 297 297 298 297 297 298
298 299 300 301 301 302 302 303 304 303 303 308 306 293 293 290 299 307 305 310 309 304 295 293 289 294 293 298 300 296 297 297 299 299 299 300 299 299 300 300 299 298 293 293 292 291 292 289 289 291 296 294 292 289 287 285 283 286 291 293 293 293 294 295 298 298 297 297 298 299 298 297 298 296 296 297 297 298 296 296 297 297 297 296 296 296 296
299 299 300 301 301 302 303 303 303 303 308 305 302 299 300 300 303 305 306 307 309 302 293 289 288 289 288 293 298 299 298 298 300 299 298 301 297 299 299 299 295 298 294 292 292 291 289 291 290 292 293 293 292 289 289 286 284 285 292 293 295 295 296 295 296 297 298 298 297 295 294 295 296 295 293 297 297 298 297 296 296 297 296 296 296 297 297
299 300 300 301 301 302 303 303 302 303 305 303 300 301 303 302 302 304 306 311 308 300 301 292 287 288 288 291 298 298 298 301 297 298 294 299 296 299 294 300 299 297 299 294 289 288 292 290 290 289 292 298 290 288 288 285 287 292 293 293 294 295 295 297 296 296 296 297 296 292 291 293 295 297 297 297 297 297 297 296 296 297 296 295 295 295 295
299 300 300 301 302 303 303 303 301 299 301 305 301 301 306 303 307 303 307 310 303 301 297 291 287 287 287 296 292 295 299 294 293 296 289 296 299 298 293 296 296 290 293 292 292 292 292 291 289 289 293 290 290 288 283 288 292 292 293 294 295 295 295 295 296 296 296 297 298 297 297 297 298 298 298 297 296 297 297 296 296 295 294 294 294 294 295
299 300 300 301 302 303 302 301 307 304 301 300 301 304 306 303 302 304 307 307 292 291 291 290 292 287 286 288 287 291 299 297 290 294 290 293 299 295 295 291 292 289 288 299 291 291 288 288 295 288 286 291 287 283 285 289 291 292 293 292 293 294 294 293 293 295 296 297 297 297 298 297 296 295 295 295 296 296 296 295 295 294 293 293 294 294 295
299 300 301 302 302 302 306 305 305 300 298 298 300 303 303 305 306 311 310 309 304 293 289 289 291 288 288 284 284 288 298 293 295 295 294 293 293 296 296 291 286 288 295 292 288 291 288 292 290 285 289 285 283 286 288 292 291 292 292 292 293 293 292 292 293 294 295 297 297 298 297 296 294 294 295 295 295 296 296 295 295 295 294 293 293 294 295
300 301 301 300 303 304 300 298 301 303 301 304 305 303 301 304 308 310 308 305 305 306 296 290 289 289 292 288 290 291 296 287 294 291 292 290 288 290 292 289 285 289 290 288 289 287 290 296 289 285 285 283 285 291 292 293 293 292 292 293 294 294 294 294 295 295 294 295 296 295 295 295 294 294 294 294 294 295 294 294 295 295 294 295 295 294 295
300 300 304 302 300 293 292 295 301 305 302 302 302 303 301 300 295 294 295 293 296 300 294 296 289 292 294 293 287 294 295 289 294 288 288 291 289 287 291 288 287 288 283 285 287 293 291 289 287 285 285 290 292 292 293 293 293 294 294 294 294 294 294 295 295 294 292 292 292 293 293 293 293 294 294 293 294 293 294 295 295 296 296 296 296 296 295
301 303 302 301 298 292 293 299 305 299 304 303 302 296 292 294 292 289 289 292 292 290 293 293 290 294 293 291 291 297 294 290 289 291 286 291 288 284 289 284 287 288 284 284 286 294 285 285 286 286 284 288 289 291 293 294 294 295 295 295 296 295 295 295 295 294 293 292 293 294 294 293 292 293 294 294 294 295 295 295 295 295 295 295 296 296 296
302 299 294 294 293 296 301 304 298 303 303 294 294 293 288 292 289 285 292 288 288 290 293 288 294 294 295 292 290 290 297 294 287 287 288 288 294 287 288 288 287 286 281 282 284 293 285 280 284 285 283 287 288 292 293 293 293 294 295 295 296 296 296 295 295 297 296 296 296 296 296 296 295 295 294 294 294 294 294 295 295 295 295 295 294 295 295
301 299 297 293 298 301 303 304 304 300 295 291 290 289 288 286 289 289 289 287 287 287 293 293 294 292 294 295 294 289 294 299 295 297 292 287 292 292 287 283 289 284 281 282 286 289 287 284 283 283 284 289 290 292 293 293 293 294 295 295 295 296 296 296 296 296 296 295 296 296 296 296 296 296 296 296 295 295 294 294 295 295 295 296 295 296 297
301 301 302 304 303 303 302 298 295 291 290 291 287 283 286 287 289 288 289 285 285 289 291 293 289 290 291 294 294 294 292 296 294 291 289 285 288 288 284 286 287 283 279 286 288 287 285 280 281 283 287 291 292 293 293 293 293 293 294 295 295 296 296 296 295 295 296 295 295 295 296 296 296 296 296 296 295 295 295 295 295 296 295 296 296 296 296
296 298 302 301 297 293 294 289 290 290 284 284 282 281 285 283 285 285 286 289 290 292 290 297 295 295 295 298 293 296 292 296 291 290 288 285 289 289 286 284 283 279 283 289 287 283 281 281 281 285 290 291 292 292 293 293 294 294 295 295 296 296 296 295 295 295 296 296 295 296 295 296 296 296 296 296 296 296 296 295 296 296 296 296 296 296 296
301 302 297 293 290 289 291 281 289 286 283 284 283 278 281 281 284 286 285 287 290 290 292 290 290 292 287 293 292 289 291 293 293 291 288 289 288 284 283 281 282 286 290 285 284 281 282 284 286 288 290 292 293 293 293 293 294 294 294 295 295 296 296 296 296 295 295 296 296 296 296 296 296 296 297 296 296 295 295 296 296 296 296 296 296 296 297
294 291 291 289 286 288 286 278 289 285 280 282 285 284 284 282 285 287 287 291 294 290 294 295 293 292 288 292 293 291 291 288 292 288 283 287 284 285 283 281 285 286 283 280 282 283 282 282 287 290 290 290 292 293 294 294 294 294 294 294 295 295 295 295 295 295 295 295 295 296 295 296 296 296 296 296 297 297 296 296 296 295 296 296 295 296 297
290 289 288 282 276 284 285 282 283 281 286 287 286 288 288 290 290 289 293 295 293 293 292 293 294 292 289 292 289 288 290 290 287 286 287 287 283 280 285 288 287 282 280 282 279 279 281 285 287 289 291 292 292 293 294 294 294 295 294 294 294 295 295 295 295 295 295 295 296 296 295 296 296 296 296 296 296 296 297 297 297 297 296 295 295 295 296
290 290 290 288 282 285 287 282 284 287 288 289 292 291 292 293 294 294 294 296 294 295 295 296 295 294 289 289 289 289 290 290 285 286 288 283 281 283 286 283 278 280 277 277 278 281 284 287 289 291 292 293 293 293 293 294 294 294 294 295 294 295 295 295 295 295 295 296 296 296 296 296 296 296 296 296 296 297 296 297 297 297 296 296 295 296 296
287 289 289 281 280 285 283 286 291 291 292 292 292 293 294 295 293 291 294 297 296 296 293 292 290 290 289 292 293 287 288 289 285 285 287 284 285 283 280 280 279 281 282 280 281 286 287 289 291 290 293 293 293 293 293 294 294 295 295 295 295 295 295 295 295 295 296 295 295 295 295 296 296 296 296 296 296 296 297 297 297 298 297 297 296 296 295
290 288 286 285 286 286 287 289 290 288 290 292 292 293 293 293 291 292 294 296 295 295 296 293 290 290 286 289 288 286 284 287 282 281 285 284 280 276 277 275 277 277 282 285 286 288 288 290 292 293 293 293 294 294 294 295 295 295 295 295 295 295 295 295 296 296 296 296 296 295 295 296 296 296 296 296 295 296 297 298 298 297 297 297 296 296 296
289 287 288 287 286 287 291 291 291 287 290 291 292 291 293 292 291 293 296 295 295 294 294 291 292 289 287 287 283 285 284 287 285 284 282 280 280 281 280 277 279 280 283 286 288 289 291 293 293 292 293 293 293 294 294 294 293 294 295 295 295 295 296 296 296 296 296 296 296 296 296 296 296 295 295 296 297 297 297 297 297 297 297 297 297 296 295
291 290 289 291 288 287 289 285 286 286 287 289 290 291 292 291 292 292 297 295 295 292 290 287 288 287 285 285 283 279 282 288 284 282 283 281 284 282 280 279 282 286 287 290 291 292 292 293 292 292 292 293 293 294 294 295 295 295 295 296 296 296 296 296 296 296 296 296 296 292 296 296 296 297 297 298 297 296 296 297 297 297 297 297 297 297 296
289 286 287 290 292 293 293 293 292 292 291 292 292 294 294 292 294 294 296 296 293 289 287 289 287 285 283 281 283 286 287 285 282 283 281 283 286 282 282 285 286 288 289 290 290 291 292 292 293 291 293 293 293 294 295 295 295 295 296 296 296 295 295 295 295 296 296 296 296 296 296 297 297 297 297 297 297 296 295 295 296 297 297 297 297 297 297
Wind_Speed
10 11 12 12 13 14 15 15 14 11 11 7 3 4 4 5 3 4 4 5 5 6 2 2 2 1 3 1 3 0 2 2 2 3 2 4 3 3 5 2 4 2 3 3 4 4 3 3 1 2 2 6 8 6 4 1 4 5 2 2 3 2 4 7 8 9 4 5 5 2 1 3 6 5 3 6 10 8 10 8 4 5 4 4 4 5 2
11 12 12 13 13 14 15 15 14 12 8 6 6 5 3 4 6 6 5 4 4 4 2 2 1 3 4 1 3 0 2 1 2 3 2 3 3 3 2 2 2 3 2 4 4 4 3 2 1 3 1 3 5 7 7 2 1 4 3 3 6 5 6 7 6 7 7 7 6 7 4 5 3 1 2 4 5 6 5 6 5 6 9 8 6 7 2
10 11 12 13 14 15 16 15 14 12 10 7 5 3 2 6 4 4 5 5 4 1 2 0 2 3 4 3 4 4 4 2 4 2 2 1 1 3 3 2 3 3 1 4 4 2 4 2 2 3 2 4 3 6 7 6 5 6 3 3 3 3 1 4 9 9 11 10 8 7 7 7 4 3 2 3 3 2 5 6 7 8 5 10 7 3 5
10 11 12 12 14 16 15 14 13 12 11 6 6 4 4 8 3 4 4 3 2 3 0 2 1 4 4 3 3 1 4 5 2 3 2 3 1 2 3 1 2 4 4 4 2 1 0 3 2 2 1 3 3 5 5 8 10 9 11 5 4 1 3 3 5 5 4 4 4 3 5 2 5 4 3 4 3 3 6 4 6 6 7 7 9 3 8
11 12 12 13 15 15 15 15 12 11 9 8 6 3 4 1 3 5 4 4 2 2 2 2 2 2 1 1 1 3 1 2 4 2 2 4 1 2 3 3 3 2 3 3 3 2 3 1 2 3 4 2 2 4 5 4 11 7 7 11 3 4 5 9 11 13 9 2 4 8 6 3 4 2 4 4 6 2 4 4 2 7 3 5 6 2 5
10 11 12 14 15 15 15 14 11 9 8 3 3 4 3 4 2 1 3 2 4 4 3 1 4 4 2 3 0 2 3 2 2 4 2 1 1 3 3 2 2 3 3 3 3 2 1 1 1 1 4 3 2 5 5 7 6 3 4 8 6 4 6 5 8 6 2 1 2 5 6 6 6 7 6 7 7 6 3 5 5 6 2 2 3 8 6
11 12 12 14 15 15 15 14 11 5 5 6 4 4 3 2 3 2 2 2 4 4 6 2 4 4 1 4 1 4 2 3 2 2 2 2 2 4 1 1 3 3 3 3 3 2 5 1 4 5 5 5 4 1 5 7 9 6 7 8 5 3 5 3 6 4 4 4 5 3 4 5 8 10 9 6 6 7 6 6 7 6 6 4 5 9 11
11 11 12 14 14 15 15 14 10 4 3 5 5 5 3 5 4 5 1 4 5 5 4 4 4 4 1 1 3 2 2 3 2 3 2 1 1 0 1 2 2 3 2 2 1 4 4 4 2 5 7 2 4 1 2 3 7 9 6 3 6 3 0 4 5 5 3 3 5 7 7 6 10 9 9 8 4 4 7 4 7 4 4 5 5 6 6
11 11 12 13 14 15 15 14 11 2 3 4 4 1 2 3 3 1 6 5 4 4 4 4 3 3 3 2 4 2 2 4 2 4 1 1 2 2 2 3 1 1 2 1 3 3 3 2 3 4 4 4 5 5 2 3 1 2 2 3 1 3 2 3 5 6 4 6 8 6 5 6 9 10 10 10 10 6 6 4 6 5 5 4 1 2 2
10 10 12 13 14 15 14 13 12 2 4 3 3 2 2 1 1 2 3 3 1 2 3 2 3 2 3 3 3 1 4 3 1 2 1 0 2 4 3 3 5 2 2 2 3 4 4 4 4 3 4 3 4 2 5 5 4 1 3 1 2 4 1 1 2 6 4 7 10 10 7 4 2 5 7 7 6 7 4 2 7 7 7 4 2 5 5
11 11 12 14 14 15 14 13 12 7 5 3 3 1 1 2 2 4 3 2 2 3 3 3 2 5 3 2 4 2 1 1 1 2 2 2 2 2 2 2 3 2 2 5 4 4 6 6 4 3 3 2 3 1 1 1 2 2 1 2 1 1 7 4 3 3 3 8 8 8 5 5 2 3 4 4 4 7 7 4 6 8 7 4 5 5 5
10 11 13 14 15 15 15 14 13 9 5 4 4 4 3 3 3 3 3 3 3 2 4 2 2 5 3 5 2 2 2 1 1 3 2 1 1 0 2 2 3 0 6 2 4 5 3 3 5 5 3 4 5 4 4 4 4 2 4 4 4 4 6 3 3 1 1 3 4 6 5 4 4 3 7 6 2 6 5 4 8 9 8 6 5 4 5
10 12 13 14 15 15 15 15 13 11 7 3 3 3 1 3 4 2 3 3 3 5 3 4 3 4 4 4 3 2 1 2 2 2 4 4 2 3 1 2 2 4 2 5 6 5 5 2 4 5 4 7 6 5 4 7 8 5 2 5 5 5 5 3 3 3 1 2 6 4 3 3 3 4 7 9 3 7 6 2 9 11 10 6 3 4 5
11 12 13 14 15 15 15 15 14 12 9 3 3 3 2 3 3 2 2 2 2 2 3 5 5 5 4 1 1 3 2 4 2 2 4 3 4 2 1 2 3 4 4 4 5 4 3 4 2 4 7 7 6 6 8 5 8 9 7 1 4 6 5 6 3 2 3 2 3 6 9 8 8 2 7 7 4 6 5 2 5 10 9 7 3 4 5
11 12 13 14 15 16 16 15 14 13 11 5 4 3 3 3 3 3 1 2 2 3 2 1 3 3 2 1 2 5 4 2 5 4 3 2 4 2 2 2 3 4 1 5 3 4 3 0 2 3 3 5 6 7 9 5 6 8 8 5 2 3 3 1 4 4 4 4 6 6 5 3 5 5 6 5 5 4 4 2 1 8 8 6 2 4 7
11 12 13 14 15 16 16 16 15 13 11 8 5 2 1 2 1 3 2 0 4 4 2 4 3 2 1 1 1 3 1 1 0 2 5 5 3 3 2 1 1 2 4 5 4 2 0 3 1 4 2 2 2 2 1 4 4 7 8 8 4 6 2 6 5 2 4 4 3 2 3 4 4 9 8 7 5 4 3 3 2 6 7 5 2 6 7
11 12 13 14 15 15 16 16 15 14 11 8 3 1 1 2 3 2 1 3 3 4 4 2 2 1 3 4 5 2 1 1 2 1 2 4 2 2 1 1 2 4 4 4 3 3 2 1 1 2 3 1 2 2 3 1 1 2 7 6 3 5 2 1 2 2 0 2 4 5 4 3 8 11 10 8 4 3 2 3 3 7 7 4 3 5 6
12 12 13 14 14 15 16 16 15 13 12 9 5 1 2 1 2 3 2 4 6 5 4 1 3 3 2 4 3 2 2 1 3 1 2 2 2 1 2 2 4 4 3 3 2 1 0 1 1 1 2 3 1 5 2 1 3 3 2 4 2 4 5 3 3 6 5 7 8 6 4 3 9 12 10 7 2 3 3 3 4 6 5 5 4 3 1
12 12 13 14 15 16 16 16 16 15 12 10 4 4 3 3 1 4 0 4 5 5 5 4 2 8 5 3 5 3 4 3 2 1 1 3 2 4 4 1 3 1 3 1 3 0 1 3 2 3 1 2 2 4 2 1 3 1 2 1 3 4 3 3 3 5 5 5 7 8 6 2 11 13 8 5 4 1 4 4 5 2 6 5 4 3 3
12 12 13 14 15 16 16 17 17 16 14 13 7 3 3 2 1 2 1 8 7 9 6 4 2 8 0 3 3 1 2 3 3 3 3 2 3 2 4 3 4 3 2 3 1 3 1 2 3 1 4 3 4 1 8 8 5 5 5 5 4 4 2 4 5 1 3 3 6 4 4 6 15 16 3 10 2 3 2 5 6 7 6 7 8 7 7
12 12 14 15 16 17 17 17 18 18 16 14 8 0 5 3 2 1 3 7 10 9 7 2 0 7 4 6 5 5 6 5 6 4 4 4 4 2 1 2 3 1 1 1 2 3 1 4 3 3 1 1 2 1 5 6 9 8 6 6 8 8 2 4 3 5 4 6 6 5 3 7 11 10 6 4 3 4 4 3 5 5 6 5 7 8 9
12 12 14 15 16 17 17 18 18 18 17 16 10 2 6 4 4 4 5 4 5 6 7 4 3 5 5 5 3 4 5 6 5 5 5 2 2 3 3 1 2 1 2 2 4 2 1 4 4 5 5 4 2 3 3 3 6 6 7 2 5 10 8 4 6 6 4 6 5 2 1 4 6 6 5 4 4 3 4 6 6 6 6 7 8 9 9
11 12 14 15 16 17 17 18 18 17 17 16 10 2 5 4 4 3 1 11 7 7 4 5 4 4 4 4 3 3 4 3 4 4 4 5 1 2 2 1 3 2 0 3 4 5 6 5 5 6 7 6 5 7 9 8 7 7 9 12 10 5 6 10 13 14 16 13 9 7 7 8 9 9 6 6 6 6 7 7 7 7 7 6 9 10 10
11 13 13 15 16 16 17 17 17 17 16 15 8 1 4 3 2 1 7 6 6 8 6 3 3 4 7 8 6 2 3 4 4 4 4 3 2 3 4 3 1 2 2 4 4 3 5 4 4 4 8 2 1 6 5 7 8 9 9 9 8 8 4 5 7 7 3 7 8 10 10 11 12 12 12 12 11 10 9 9 8 9 10 10 10 11 10
11 12 13 14 15 16 17 17 16 17 15 14 6 1 1 3 3 3 3 4 3 3 5 5 6 4 5 3 4 3 6 5 2 2 2 4 4 6 5 4 3 4 5 2 2 2 3 5 5 6 8 3 4 6 5 7 6 2 7 8 7 7 4 10 10 10 9 9 10 10 12 11 11 10 11 13 13 13 12 10 11 11 11 11 11 11 11
11 12 13 14 15 15 16 16 16 15 13 15 10 2 3 4 3 3 2 6 5 3 6 6 7 3 2 5 9 6 6 5 3 4 2 2 3 4 6 3 4 1 2 0 2 3 5 5 5 6 8 6 6 8 9 9 9 9 9 7 7 3 4 5 8 11 12 13 11 11 12 12 12 12 12 11 10 11 13 13 13 13 13 12 11 9 9
11 11 13 13 14 15 15 15 14 14 14 14 6 5 4 4 4 5 2 2 5 5 4 6 5 6 7 10 6 5 4 4 3 4 5 3 3 3 2 4 5 3 5 7 6 5 5 7 7 9 8 6 5 8 7 8 9 7 9 9 4 7 11 8 7 8 7 7 8 4 5 7 8 10 11 11 10 10 11 11 11 11 11 11 11 10 9
10 11 13 14 14 14 14 14 13 13 11 10 5 4 5 5 4 4 4 3 5 2 6 6 7 6 3 10 7 6 7 5 6 8 8 8 7 4 3 2 3 4 4 5 7 7 8 12 11 5 5 6 8 9 8 9 10 11 11 10 7 7 6 3 5 5 7 8 7 6 10 10 10 9 8 8 9 9 10 10 9 9 9 9 9 9 8
10 11 12 13 13 14 14 13 13 11 12 8 2 1 4 4 3 4 4 2 5 5 5 6 4 3 2 4 5 6 7 8 9 9 9 10 10 9 9 8 7 7 9 8 7 7 7 6 3 4 4 4 2 8 7 9 10 11 10 10 10 8 8 13 12 12 11 9 7 7 8 9 9 8 7 7 6 8 8 9 8 8 8 7 7 7 7
10 11 13 13 14 13 14 13 12 10 10 4 3 3 4 4 3 5 6 5 4 2 4 5 6 3 1 1 6 7 7 8 10 12 12 10 10 8 8 8 8 6 7 5 6 9 6 5 3 4 3 5 2 7 7 9 11 11 10 10 10 10 11 9 8 9 9 7 7 8 10 10 8 7 6 6 4 5 7 7 7 7 6 6 6 5 5
10 12 13 13 14 13 13 12 12 12 9 3 3 2 4 4 3 4 7 5 3 2 3 3 6 3 3 2 3 8 7 7 7 8 9 8 8 8 6 7 8 5 8 7 7 6 2 6 4 3 1 5 2 6 9 9 11 10 10 10 10 11 11 10 8 9 9 9 9 9 9 8 6 6 6 5 6 6 7 7 6 6 5 6 7 6 6
11 12 13 14 13 13 12 11 11 11 4 2 2 3 3 4 3 6 7 4 4 3 5 6 3 3 4 2 3 4 4 3 2 5 6 4 8 7 10 8 7 8 6 6 5 4 5 3 5 6 7 4 4 8 9 10 10 10 9 9 8 8 8 9 9 9 9 8 9 9 7 7 4 3 6 6 6 5 6 7 7 7 3 5 5 5 5
12 13 14 14 13 12 11 9 9 7 4 3 1 4 6 2 5 6 4 4 2 3 2 1 3 2 1 5 1 6 6 2 4 3 7 6 5 3 6 4 5 7 8 2 3 3 1 4 7 8 5 3 5 6 10 9 10 8 8 8 8 8 8 7 7 7 7 5 7 4 5 5 6 5 5 5 5 5 5 6 6 4 4 5 5 5 5
12 13 14 14 13 11 8 8 4 3 4 3 3 4 5 10 4 3 4 2 2 1 1 2 3 3 5 3 3 5 7 2 5 2 5 5 3 1 5 5 7 4 6 6 3 4 3 5 8 7 5 6 5 7 9 9 9 9 9 9 7 7 6 6 5 5 5 5 5 5 4 4 5 5 4 4 4 4 3 3 4 3 3 2 3 2 3
14 14 14 13 12 10 7 5 3 2 2 3 3 2 5 8 6 6 3 2 2 2 1 1 0 5 4 2 4 4 5 3 4 4 4 4 4 4 4 4 3 5 2 2 3 4 5 3 1 4 7 7 6 7 7 10 10 9 8 8 6 5 5 6 6 4 3 3 3 3 3 4 5 4 3 3 2 2 3 3 3 2 1 1 1 2 3
14 14 13 11 10 7 4 5 1 2 3 2 3 3 5 7 5 2 2 3 4 2 2 2 2 3 3 5 5 2 3 5 3 2 4 0 4 4 3 5 7 4 3 1 6 5 4 2 2 6 2 5 6 5 7 7 10 9 8 8 7 7 7 7 5 4 3 3 3 2 2 2 1 3 2 2 1 2 2 3 4 4 3 1 2 2 3
14 13 11 9 5 4 2 1 1 2 3 3 5 10 11 7 3 4 2 1 3 4 2 2 3 3 3 5 2 2 3 4 1 3 3 2 4 2 2 4 5 0 1 4 4 5 4 4 2 6 5 6 6 5 5 5 7 8 8 7 7 6 6 6 5 3 2 3 3 2 1 2 3 3 2 1 0 0 2 4 4 5 6 5 4 3 3
10 7 4 4 4 2 2 2 2 3 6 5 5 3 2 3 2 2 1 2 2 3 2 2 4 4 1 2 3 2 3 4 3 2 3 1 1 3 1 3 2 1 5 4 4 2 1 2 4 7 6 6 6 5 6 6 7 6 6 6 6 6 5 5 3 3 2 1 3 2 2 2 2 2 1 0 1 3 4 4 4 5 6 6 5 5 5
6 3 3 2 2 2 1 4 3 2 3 1 3 1 2 1 1 2 1 0 0 2 1 1 4 1 2 5 5 3 3 1 3 3 4 2 0 4 1 3 1 1 5 4 3 4 3 4 4 6 7 7 8 7 5 6 6 6 5 5 5 5 4 5 5 6 6 5 5 5 4 4 2 2 1 1 3 3 3 2 2 2 2 3 5 5 6
4 5 3 3 0 3 3 4 3 2 3 1 0 0 3 1 0 2 0 2 2 2 0 2 2 2 4 2 5 4 2 3 2 4 4 4 4 1 2 1 1 1 4 3 4 3 3 5 3 5 7 6 8 6 6 6 7 5 5 6 6 5 4 5 5 4 5 5 4 4 2 1 3 2 2 3 4 4 2 2 1 1 2 2 3 3 3
2 2 2 1 4 3 2 1 1 2 1 2 2 1 0 2 2 1 1 2 1 2 2 3 3 4 3 0 1 4 2 2 3 3 2 3 1 2 2 2 0 1 2 3 2 1 2 4 4 4 6 7 9 8 7 6 6 6 5 5 5 4 4 5 6 6 5 5 5 5 4 3 2 1 2 3 3 3 1 2 1 1 3 3 3 3 2
3 3 3 2 2 2 2 2 0 1 1 1 0 2 1 1 1 1 1 1 3 2 4 2 3 4 4 3 4 2 3 2 1 0 1 2 1 1 3 2 1 1 3 2 1 2 3 4 4 5 7 9 9 7 6 7 6 6 6 5 4 3 3 4 5 5 5 5 4 4 4 4 3 3 3 3 3 3 3 3 3 3 4 4 3 3 2
4 4 3 2 3 1 1 2 1 1 1 1 1 2 1 2 1 1 2 1 0 1 3 2 4 4 3 3 4 5 2 1 1 1 0 2 1 1 1 2 2 2 2 2 2 3 3 4 4 6 9 9 8 7 6 6 6 5 5 4 4 3 3 4 4 4 4 4 4 4 4 3 3 3 3 3 3 4 3 4 4 5 5 5 4 2 1
1 3 2 1 2 1 1 2 0 0 2 0 2 4 3 3 4 2 2 4 3 3 5 6 6 5 4 1 1 3 2 3 0 1 2 1 1 2 1 2 2 2 1 2 2 4 2 2 2 8 9 8 6 7 7 6 5 5 5 4 4 2 2 1 1 2 3 2 2 3 2 2 4 3 2 3 3 4 4 4 3 3 4 4 3 1 1
3 1 1 2 1 0 0 1 1 1 2 2 1 2 4 4 5 4 2 3 3 7 6 4 5 4 5 3 0 2 2 2 1 1 2 1 2 1 1 3 2 2 2 4 2 2 1 3 3 8 10 9 8 8 7 6 5 4 4 4 3 2 1 1 1 1 2 2 3 3 3 3 3 3 4 4 3 3 4 4 3 4 3 3 2 1 2
2 3 3 3 2 2 1 1 1 2 1 2 1 3 3 2 5 5 5 2 6 8 7 6 5 6 4 1 1 2 1 2 2 2 0 1 2 3 2 1 1 2 1 2 3 4 4 4 6 7 9 9 9 7 6 5 4 3 4 3 3 1 1 1 2 2 2 3 3 3 3 3 3 4 4 4 4 4 3 3 3 4 4 3 3 1 2
2 0 0 0 2 1 1 2 2 1 1 2 2 2 2 6 6 6 4 1 6 6 6 4 4 3 4 3 2 2 1 1 2 1 1 1 2 2 0 1 2 2 4 4 3 3 3 4 6 9 9 8 8 7 6 5 4 4 3 2 1 0 0 2 2 3 3 3 4 4 4 4 4 4 4 5 4 4 3 3 4 4 4 4 3 1 2
2 0 1 2 2 2 3 1 2 3 1 2 3 3 4 6 7 6 4 2 5 6 7 6 5 4 3 1 2 3 3 1 2 2 1 2 2 1 1 1 1 1 1 2 4 2 3 6 8 7 8 7 7 6 5 5 4 4 3 2 1 1 1 2 3 2 3 4 4 5 5 4 4 4 4 5 6 5 4 4 3 3 4 4 4 3 4
1 0 0 1 1 0 1 3 4 5 4 4 4 5 6 6 7 6 4 3 4 4 2 2 3 2 3 0 1 3 2 1 1 2 1 1 2 3 2 3 3 3 3 1 2 3 5 7 9 8 8 7 5 4 4 3 3 3 2 1 1 1 1 1 1 2 2 3 3 4 4 3 4 4 5 5 5 5 4 4 5 4 4 4 5 5 5
1 2 1 2 2 1 2 2 3 5 6 6 5 6 6 8 8 5 2 4 5 5 4 4 1 1 2 1 2 1 2 1 1 2 2 2 1 1 1 2 2 2 4 3 3 5 7 8 8 8 7 6 5 3 3 4 3 1 1 1 1 1 1 1 1 1 2 2 3 3 4 4 4 4 5 5 5 5 5 5 5 5 5 5 5 5 6
1 0 1 2 1 3 5 5 7 8 7 7 7 7 7 9 8 6 1 3 5 4 3 2 2 2 3 1 2 3 1 1 2 3 1 2 2 2 2 2 3 2 4 4 5 5 7 7 6 6 5 4 4 3 3 2 2 2 2 1 1 0 1 0 1 1 1 1 2 2 4 4 4 4 4 4 5 5 6 5 5 5 5 5 6 7 7
2 2 2 2 1 3 2 3 6 6 7 7 7 5 5 8 5 5 1 3 4 3 2 2 2 2 1 2 1 2 2 1 1 1 2 1 1 2 2 1 3 4 6 6 6 5 5 4 5 4 4 4 4 3 3 3 2 2 2 2 1 1 0 1 1 1 2 2 3 3 4 3 3 3 3 5 5 5 6 5 4 3 4 5 5 6 6
Wind_Direction
335 329 332 334 336 333 333 331 331 330 331 327 8 305 228 214 95 64 144 167 249 260 120 118 179 176 66 89 181 116 211 299 58 251 170 223 206 248 236 286 270 162 321 353 312 351 266 342 235 35 159 75 35 22 358 296 223 241 168 194 62 295 241 230 239 232 176 144 134 153 234 204 201 198 258 241 234 241 240 254 320 262 205 232 248 242 145
331 328 333 335 334 335 332 332 331 330 331 320 307 278 230 128 136 137 148 212 275 264 185 155 113 101 117 131 91 124 350 274 184 221 133 287 168 248 253 208 238 318 351 300 310 349 266 90 281 150 333 93 34 32 22 329 110 313 69 294 124 212 209 251 224 216 215 185 185 198 168 228 247 149 57 332 291 271 269 286 244 259 255 251 246 260 86
329 328 332 335 337 335 334 333 328 320 322 291 262 272 169 141 104 127 149 197 251 254 28 49 108 115 121 130 118 145 171 69 345 322 65 207 319 241 207 341 333 268 330 292 294 308 331 254 59 340 38 74 82 42 18 39 62 32 28 325 164 243 51 208 227 217 211 202 208 212 203 210 110 104 68 32 345 282 219 227 231 242 237 235 231 243 116
329 332 338 341 338 337 337 335 325 325 319 247 209 252 234 176 147 157 154 183 174 97 31 327 94 129 139 115 86 224 147 136 106 273 116 360 114 1 319 191 272 284 290 248 241 201 321 304 10 297 121 96 93 36 22 38 36 46 55 14 222 215 165 222 275 282 269 45 6 60 312 221 214 113 56 40 7 303 267 306 250 238 225 226 240 262 141
331 339 343 341 340 339 339 338 333 345 344 193 206 252 272 205 188 156 170 159 221 135 176 146 229 139 276 142 176 130 66 126 140 313 212 74 345 85 11 358 244 299 275 295 257 304 272 155 239 33 339 40 29 36 26 24 20 13 51 18 337 232 209 206 222 244 276 48 19 12 357 343 42 26 43 34 13 341 258 249 285 348 306 250 25 3 147
338 340 340 340 342 343 342 338 342 6 9 170 266 223 198 208 100 215 28 276 143 175 139 153 99 93 245 88 257 86 144 171 149 167 73 125 70 251 148 69 64 15 3 313 259 288 246 38 13 306 26 324 35 162 74 79 21 47 69 31 18 300 259 160 202 200 103 59 75 42 48 43 45 42 28 28 22 26 62 42 19 333 313 352 31 336 84
341 340 339 342 344 345 345 341 353 4 345 310 277 241 126 335 96 91 348 253 79 36 89 130 112 118 55 113 212 121 109 103 73 340 144 193 95 328 89 326 50 19 4 312 250 353 249 116 56 27 2 32 317 106 155 85 34 25 78 81 24 306 281 205 203 161 126 110 128 158 140 93 60 36 23 11 28 32 33 39 14 16 56 63 101 79 57
340 339 340 343 345 347 347 344 355 12 319 266 265 271 224 171 181 142 165 89 106 112 135 140 170 126 219 193 91 66 67 83 93 133 264 173 129 327 208 51 49 32 342 319 278 55 30 30 23 37 345 152 24 48 12 341 11 24 32 42 56 1 254 161 193 177 144 117 128 138 137 113 83 58 43 25 7 64 37 25 16 320 96 79 114 99 74
338 338 341 345 347 348 349 347 353 93 282 214 253 217 350 9 347 356 160 138 108 140 162 176 169 141 175 192 125 199 82 69 21 82 1 36 81 31 39 23 48 94 323 54 85 56 29 350 10 347 352 331 19 332 69 346 350 48 43 23 15 54 310 269 242 220 166 162 151 120 110 98 87 59 35 27 24 28 8 22 18 358 357 358 156 179 112
338 342 347 348 348 349 350 351 350 31 240 281 296 218 80 261 88 277 242 151 168 199 138 161 208 127 60 24 100 323 80 51 3 135 107 31 22 25 357 15 296 138 215 83 41 15 315 316 317 320 327 313 315 285 294 297 319 347 83 247 146 116 84 250 238 255 180 158 152 147 147 133 184 36 6 350 9 357 335 94 35 21 333 292 278 56 62
342 348 349 347 348 350 351 352 351 349 306 292 292 344 185 269 167 184 239 159 165 210 187 160 258 59 119 155 145 142 120 37 330 288 126 212 124 23 325 303 308 297 79 67 30 321 301 296 285 264 264 278 221 256 280 255 256 262 163 159 125 154 172 183 30 275 148 170 159 165 177 212 71 66 9 330 353 355 356 14 11 12 11 16 15 55 90
345 346 347 347 349 349 352 353 351 356 332 296 288 293 341 322 278 240 200 196 138 171 240 87 46 129 184 136 201 166 183 209 15 351 314 359 14 350 252 240 272 297 79 9 308 293 256 224 230 209 191 161 159 148 117 84 75 170 203 218 155 183 190 157 137 237 179 157 172 183 202 80 141 142 28 358 313 360 330 34 34 19 17 22 50 89 95
344 347 348 348 348 349 352 353 351 355 357 302 245 280 49 303 293 263 229 235 152 185 204 125 109 116 116 152 192 193 316 320 286 288 276 276 226 199 242 305 306 45 344 316 293 260 239 244 200 210 172 159 166 179 132 72 65 69 148 204 195 162 196 156 186 202 101 183 189 190 88 90 150 173 31 359 219 354 305 188 43 21 9 1 56 60 92
345 348 346 347 348 349 351 352 352 352 1 328 245 269 300 262 269 216 208 205 119 94 64 121 162 153 169 158 285 273 255 239 229 236 257 201 249 235 129 255 8 344 305 275 256 240 228 212 207 202 183 186 177 210 154 94 59 49 50 100 256 219 229 206 174 225 218 189 58 79 124 112 55 63 12 13 356 339 354 343 43 22 6 8 69 90 96
347 347 347 346 347 348 350 352 352 353 357 335 253 254 250 232 276 303 27 283 128 124 229 236 130 138 164 164 293 273 236 233 241 194 164 97 253 255 316 346 340 321 261 260 224 212 244 197 204 212 190 204 193 209 169 197 99 57 59 63 57 340 209 278 236 197 249 164 132 140 182 121 59 22 348 352 318 300 274 247 111 25 15 10 75 123 127
347 347 346 346 346 347 348 350 352 352 355 332 248 274 63 343 290 285 290 292 156 162 104 47 56 174 219 157 24 305 348 257 226 210 189 190 203 200 156 310 349 253 243 242 251 243 199 233 200 225 240 211 27 124 147 131 136 84 47 32 119 127 210 282 260 187 215 217 174 97 82 74 21 351 344 341 328 275 209 251 114 17 11 10 112 135 139
348 348 348 345 346 346 348 350 351 351 353 343 287 275 73 68 250 285 196 121 48 78 70 67 78 213 182 142 184 174 356 348 339 247 194 159 139 306 158 75 149 235 235 248 202 209 182 184 242 265 106 7 263 103 175 348 119 28 24 23 72 120 103 254 165 60 5 101 97 89 45 38 352 338 337 335 320 217 195 221 82 5 21 57 76 120 147
349 350 347 345 344 345 348 349 350 352 351 346 289 322 59 91 253 259 232 122 113 96 75 69 285 205 74 32 60 65 256 214 200 204 291 68 213 193 17 260 197 150 268 243 203 192 132 258 309 232 88 30 261 278 75 29 74 17 2 315 15 65 85 34 96 126 97 98 101 109 104 58 352 336 331 342 17 205 242 22 9 9 49 67 92 71 157
350 349 348 346 346 347 347 348 351 353 354 348 304 231 89 34 174 252 247 120 122 107 93 69 4 67 77 78 50 54 27 360 321 272 156 173 99 8 300 63 316 169 205 206 225 115 151 98 81 11 149 91 355 48 357 69 49 88 74 37 86 46 78 64 20 52 85 99 92 96 85 44 344 340 328 353 251 316 47 1 334 21 55 35 47 55 48
350 349 349 348 349 348 347 347 352 355 353 353 323 87 65 53 320 284 312 108 102 107 119 109 105 95 97 18 67 81 164 188 8 351 13 37 60 246 201 196 172 237 166 202 89 358 328 93 73 78 66 72 65 63 85 84 81 54 66 53 43 357 14 79 54 53 109 101 93 94 44 24 2 335 299 10 35 41 332 346 62 73 60 53 44 58 78
351 350 350 351 350 349 349 349 353 355 354 355 340 262 87 41 3 214 279 119 119 112 102 103 63 83 51 60 35 26 9 18 350 360 31 20 11 281 235 71 62 322 61 314 138 150 140 126 118 77 71 21 118 242 109 123 85 56 45 76 51 348 81 82 65 341 74 73 60 61 18 319 345 11 48 358 19 325 313 289 79 63 71 66 71 70 84
352 353 351 351 350 351 351 353 353 354 354 352 339 282 91 42 34 20 359 32 91 88 96 68 24 62 65 51 27 4 357 339 344 322 315 41 61 1 50 57 41 351 39 286 132 127 123 103 135 128 128 121 210 94 211 109 79 79 45 334 87 21 58 21 82 30 48 76 85 67 31 4 23 32 53 45 15 29 40 79 89 89 74 82 81 78 73
353 354 353 353 351 352 354 353 353 354 357 355 345 50 78 97 85 327 157 93 90 100 119 123 163 146 163 113 63 28 9 351 307 282 275 298 100 51 20 47 95 20 60 310 350 81 109 132 97 99 92 71 81 93 78 71 88 74 70 52 92 78 37 88 87 87 89 81 89 101 80 65 66 68 67 69 79 72 81 85 90 76 84 85 93 90 85
352 354 354 353 352 352 353 353 354 356 357 360 347 43 90 44 1 25 107 99 111 109 99 91 120 51 25 32 22 32 6 1 348 315 320 280 325 120 121 57 38 184 62 27 311 33 85 81 80 108 101 50 8 87 92 86 71 84 89 93 80 91 128 113 96 152 120 73 78 80 81 82 76 74 74 76 76 83 90 93 92 100 101 102 98 100 99
353 354 354 353 352 352 352 354 355 357 357 357 342 32 158 108 30 334 128 127 149 133 103 90 55 26 13 357 351 25 24 345 323 296 232 225 294 6 64 39 353 7 81 50 258 134 118 110 118 100 90 21 317 88 72 107 83 40 102 100 116 87 35 87 81 94 89 106 97 86 81 77 74 75 79 77 80 84 89 96 105 109 111 108 110 111 106
352 352 354 354 352 351 351 354 355 356 354 351 336 30 60 59 341 301 57 66 65 102 113 94 87 55 43 58 38 14 331 346 10 32 51 32 12 35 111 147 103 41 77 199 284 91 95 94 91 97 97 70 21 82 68 60 83 63 74 64 21 75 232 90 106 99 101 103 102 101 92 83 79 75 73 81 89 93 95 103 108 112 114 117 120 121 120
349 350 351 353 351 349 351 352 355 355 355 344 5 53 71 68 23 360 44 112 120 100 107 100 99 88 66 65 42 31 5 350 23 77 80 90 114 116 126 110 106 126 105 90 61 80 80 79 79 82 75 81 61 77 95 91 77 82 77 64 91 106 86 115 121 109 107 112 122 138 116 102 96 85 85 88 91 98 107 114 116 120 118 118 118 117 118
343 346 348 350 348 346 347 348 350 350 353 333 324 50 54 59 38 17 359 342 303 121 127 125 115 103 114 66 30 41 32 34 54 66 68 74 81 81 92 73 57 91 99 105 105 93 91 91 84 85 94 114 96 78 78 88 85 70 66 59 33 76 1 14 89 96 105 100 94 81 93 98 96 102 97 89 91 98 98 100 108 115 122 131 131 125 125
339 341 344 346 346 343 343 343 345 343 341 317 289 211 98 68 54 46 9 310 278 114 105 102 122 136 84 43 337 64 50 46 58 61 65 67 67 69 70 65 74 83 83 79 85 86 82 76 59 76 72 345 22 104 101 81 73 70 68 61 54 39 27 69 83 94 94 102 100 98 106 108 114 108 105 95 85 84 86 92 97 104 110 110 108 114 121
336 337 340 342 342 340 339 338 338 339 327 291 265 199 143 109 53 29 4 333 337 110 129 131 106 84 178 6 36 42 52 47 61 56 55 59 59 58 61 69 69 64 75 82 92 90 81 89 81 77 50 290 92 104 96 92 86 81 75 75 75 77 70 58 50 80 95 92 96 97 103 110 110 108 92 92 83 77 91 92 92 99 97 95 98 103 107
334 334 336 337 337 338 337 336 332 328 307 273 259 171 160 142 88 40 359 338 324 307 98 108 100 130 99 64 358 22 20 43 49 52 46 47 57 57 63 77 52 67 93 81 74 71 94 97 97 76 98 2 339 107 100 100 96 90 74 71 73 78 76 73 68 78 92 99 101 104 106 102 111 115 107 107 117 109 107 104 94 65 58 89 84 87 91
330 331 330 333 333 335 335 332 334 315 301 329 344 9 27 29 29 336 330 311 297 185 123 117 132 124 90 95 44 4 2 10 15 82 57 21 74 54 63 54 67 42 49 75 78 87 60 70 85 94 103 332 312 97 97 95 95 93 95 86 81 84 87 90 88 87 89 97 113 114 109 117 120 82 110 126 118 111 104 108 110 120 130 103 101 92 92
328 327 328 330 331 330 330 327 330 328 77 68 86 154 109 27 324 296 315 287 227 41 335 92 89 129 140 83 129 41 349 236 92 65 70 5 55 48 81 62 81 68 7 52 53 85 48 100 102 91 47 326 93 92 93 90 90 92 86 88 86 85 90 91 92 90 84 53 5 56 108 123 109 94 112 121 124 114 125 126 126 134 129 132 128 130 126
324 325 325 326 324 326 325 321 297 292 245 216 125 63 43 10 336 30 316 282 73 78 300 98 132 124 106 204 150 59 342 33 76 14 92 35 334 62 90 86 63 76 9 58 102 114 99 105 100 101 99 69 84 95 91 92 103 102 99 92 90 93 94 100 96 87 69 41 35 39 65 100 119 110 134 138 131 132 142 148 152 155 124 113 106 115 132
321 319 321 319 319 315 306 288 233 231 85 86 87 76 3 354 338 296 302 287 183 133 128 68 288 128 138 142 100 71 346 303 92 18 77 76 352 54 97 89 79 88 61 302 89 80 96 50 321 115 87 99 91 86 102 114 110 112 102 87 71 85 91 90 86 65 45 31 38 64 93 127 138 137 130 140 157 171 186 186 191 190 197 154 142 179 176
315 315 313 312 305 287 248 225 271 153 142 84 80 29 350 310 290 291 318 23 355 119 131 111 233 130 144 128 114 95 282 91 74 86 53 172 105 26 42 100 91 54 301 353 102 92 83 342 268 109 121 96 74 91 95 97 111 96 82 73 61 56 53 38 24 24 43 47 43 51 109 150 139 124 128 133 149 205 215 238 227 229 246 242 221 204 207
312 310 301 285 265 199 154 81 50 337 41 5 332 321 293 283 232 226 221 178 68 341 55 159 143 87 2 86 92 99 269 126 182 115 58 66 82 9 54 96 83 74 150 91 77 81 69 298 101 97 86 98 96 68 76 69 84 87 82 70 64 58 59 58 42 37 93 86 80 92 150 181 159 146 146 112 67 229 265 280 280 263 249 241 223 226 237
311 291 258 186 187 152 134 139 80 19 323 292 286 251 154 231 143 111 100 70 13 293 69 317 88 99 252 217 104 36 273 106 279 118 108 25 158 88 11 72 60 235 111 85 72 337 55 49 87 100 88 76 88 96 95 92 87 78 76 75 67 61 53 46 19 7 43 164 148 158 170 202 215 210 258 356 18 354 325 316 300 285 273 269 262 256 256
240 217 210 213 205 144 80 95 47 339 276 219 244 245 104 338 148 121 65 28 192 113 21 317 106 124 141 105 87 50 356 102 142 152 141 23 335 113 269 125 122 205 115 136 111 258 124 105 117 122 118 128 124 111 114 105 97 85 81 75 65 61 46 59 42 36 31 17 8 359 345 334 337 218 254 2 351 349 341 315 314 355 316 274 270 268 267
188 189 164 171 116 83 73 116 157 243 225 201 93 250 113 321 209 122 243 157 113 70 253 121 31 35 345 64 131 112 24 297 171 137 118 112 335 91 111 91 94 184 137 141 112 273 163 136 142 140 135 146 127 135 128 118 110 104 96 90 81 75 64 64 65 55 53 58 49 42 44 17 2 334 345 344 339 342 339 313 307 355 350 7 18 319 288
187 146 185 128 99 111 91 75 209 232 240 151 119 34 116 118 31 28 188 131 88 95 350 84 147 139 115 287 146 114 108 299 28 12 77 73 29 276 147 101 319 112 133 114 120 229 125 126 164 163 142 141 140 139 132 133 120 114 98 89 84 77 76 77 66 50 41 57 60 67 70 70 75 27 17 347 341 334 6 331 298 341 326 311 272 276 320
17 348 21 40 68 103 178 171 250 138 62 328 100 69 23 73 144 169 288 199 125 138 130 190 152 131 110 31 63 90 109 340 327 277 146 115 13 2 96 124 197 194 134 70 129 189 163 152 171 144 136 138 136 144 150 137 128 122 115 107 100 84 76 70 70 63 41 41 41 39 37 14 9 352 354 335 334 332 331 319 302 273 285 307 304 281 269
241 248 280 178 151 143 273 149 42 301 149 132 104 93 177 167 162 172 132 103 64 240 107 349 76 84 94 233 101 21 52 347 275 113 68 94 162 243 128 120 190 130 89 151 201 158 180 164 178 149 146 145 151 156 157 133 130 125 116 117 114 92 57 56 53 54 47 31 27 19 9 351 355 353 343 317 311 294 291 292 304 305 303 305 309 313 280
239 240 200 149 132 73 248 121 229 86 41 312 172 155 177 163 169 179 175 148 152 131 148 157 161 198 128 358 46 131 156 153 354 86 81 110 217 108 140 137 80 69 141 178 188 177 155 132 161 141 146 143 153 159 147 144 151 142 133 130 129 134 119 109 80 63 68 51 35 5 327 338 322 316 299 299 304 309 314 309 320 335 313 294 283 289 106
175 141 140 144 62 42 254 57 267 227 191 166 225 157 169 179 164 180 132 121 187 133 149 151 159 151 112 113 173 74 307 108 156 228 114 162 105 63 116 105 112 168 182 155 162 129 141 172 133 136 146 153 161 160 152 156 156 146 127 145 148 135 106 30 39 357 18 25 18 347 337 339 316 315 312 311 310 309 300 308 332 323 315 298 280 188 130
179 151 157 119 15 308 308 114 136 198 196 157 188 176 182 113 145 116 80 138 125 136 147 139 132 121 112 68 318 105 143 157 127 55 30 220 131 96 63 84 206 148 129 182 178 187 187 156 154 156 157 156 153 152 156 154 148 141 177 170 136 140 116 309 311 311 320 343 341 335 332 313 311 305 304 307 301 297 297 301 309 314 320 283 260 245 135
120 333 342 99 118 140 259 185 171 42 66 153 66 33 68 85 70 85 88 134 138 116 105 88 78 83 125 135 141 146 137 98 82 84 256 124 90 104 258 210 164 167 170 179 190 181 145 132 142 144 145 141 145 152 157 155 162 173 175 123 158 176 247 279 293 302 331 321 315 314 316 321 312 302 296 288 292 293 284 279 282 287 293 293 293 252 202
152 37 275 177 159 165 186 135 59 121 55 41 81 87 95 123 126 112 99 77 111 138 132 135 136 141 116 104 286 98 111 107 108 88 20 98 121 128 135 159 161 159 249 201 188 179 138 136 139 139 139 142 148 154 156 158 167 179 177 173 212 240 265 292 303 327 341 325 321 318 319 309 303 298 297 304 302 293 288 284 287 282 278 274 265 251 247
58 185 205 99 86 149 82 107 166 121 106 108 122 133 138 131 106 101 105 127 140 111 86 181 137 165 99 85 143 144 125 155 159 127 171 186 167 157 182 170 176 187 185 239 105 125 129 132 130 132 134 139 142 151 141 147 153 167 179 240 287 308 277 283 319 348 328 319 327 325 319 329 304 289 290 289 293 303 312 291 272 268 268 275 273 265 257
168 127 157 160 151 124 100 173 157 122 128 137 144 131 126 117 114 106 124 117 107 123 118 90 60 38 98 184 137 103 125 143 85 149 181 160 133 155 187 168 190 206 145 168 130 125 126 129 127 131 135 140 144 153 143 139 136 176 138 162 181 213 226 348 324 4 341 353 338 338 321 302 296 306 309 313 317 314 298 282 270 266 269 266 269 268 271
351 356 55 348 324 137 160 167 154 141 147 144 140 134 139 130 130 132 154 139 153 158 178 152 133 141 148 129 146 164 124 126 176 171 186 142 152 186 191 173 172 155 108 121 125 126 129 134 140 134 136 142 140 141 141 140 141 139 150 175 162 172 156 213 317 322 305 321 335 304 297 318 332 326 321 308 296 293 286 270 259 266 270 265 262 266 269
191 168 142 134 253 170 156 88 128 135 128 129 125 110 132 124 118 118 189 196 172 192 138 138 167 143 169 168 154 85 119 167 99 147 174 132 206 181 164 83 113 119 128 133 125 125 127 126 108 117 142 128 138 142 140 134 155 153 156 135 129 156 293 299 301 304 308 297 298 314 315 320 317 308 298 287 281 281 282 290 283 275 275 272 268 267 267